SB KEPS @ AMSAT $ORB13339.O Orbital Elements 13339.OSCAR
HR AMSAT ORBITAL ELEMENTS FOR OSCAR SATELLITES FROM WA5QGD FORT WORTH,TX December 5, 2013 BID: ORB13339.O TO ALL RADIO AMATEURS BT
Satellite: AO-07 Catalog number: 07530 Epoch time: 13339.21163438 Element set: 839 Inclination: 101.4505 deg RA of node: 322.6162 deg Eccentricity: 0.0011733 Arg of perigee: 315.2516 deg Mean anomaly: 112.2467 deg Mean motion: 12.53600054 rev/day Decay rate: -1.5e-07 rev/day^2 Epoch rev: 78721 Checksum: 257
Satellite: FO-29 Catalog number: 24278 Epoch time: 13338.53660825 Element set: 256 Inclination: 098.5323 deg RA of node: 014.1228 deg Eccentricity: 0.0351519 Arg of perigee: 082.6647 deg Mean anomaly: 074.6524 deg Mean motion: 13.53010829 rev/day Decay rate: -1.1e-07 rev/day^2 Epoch rev: 85434 Checksum: 303
Satellite: SO-33 Catalog number: 25509 Epoch time: 13338.83731231 Element set: 641 Inclination: 031.4325 deg RA of node: 181.3174 deg Eccentricity: 0.0350953 Arg of perigee: 212.0897 deg Mean anomaly: 227.4435 deg Mean motion: 14.29248946 rev/day Decay rate: 5.57e-06 rev/day^2 Epoch rev: 78932 Checksum: 313
Satellite: RS-22 Catalog number: 27939 Epoch time: 13339.52962631 Element set: 10 Inclination: 097.7978 deg RA of node: 158.4833 deg Eccentricity: 0.0013579 Arg of perigee: 007.7112 deg Mean anomaly: 352.4322 deg Mean motion: 14.64714338 rev/day Decay rate: 9.76e-06 rev/day^2 Epoch rev: 54437 Checksum: 327
Satellite: VO-52 Catalog number: 28650 Epoch time: 13338.57348481 Element set: 597 Inclination: 097.5627 deg RA of node: 348.4205 deg Eccentricity: 0.0027156 Arg of perigee: 081.1117 deg Mean anomaly: 033.2397 deg Mean motion: 14.84414905 rev/day Decay rate: 1.704e-05 rev/day^2 Epoch rev: 46435 Checksum: 319
Satellite: HO-68 Catalog number: 36122 Epoch time: 13339.59738542 Element set: 120 Inclination: 100.2832 deg RA of node: 032.1364 deg Eccentricity: 0.0007285 Arg of perigee: 323.2806 deg Mean anomaly: 036.7823 deg Mean motion: 13.16309348 rev/day Decay rate: -4.4e-07 rev/day^2 Epoch rev: 19096 Checksum: 286
Satellite: AO-73 Catalog number: 39417 Epoch time: 13339.50223934 Element set: 49 Inclination: 097.7993 deg RA of node: 051.6859 deg Eccentricity: 0.0063840 Arg of perigee: 150.1043 deg Mean anomaly: 210.3859 deg Mean motion: 14.77145472 rev/day Decay rate: 1.765e-05 rev/day^2 Epoch rev: 209 Checksum: 316
/EX SB KEPS @ AMSAT $ORB13339.D Orbital Elements 13339.MICROS
HR AMSAT ORBITAL ELEMENTS FOR THE MICROSATS FROM WA5QGD FORT WORTH,TX December 5, 2013 BID: ORB13339.D TO ALL RADIO AMATEURS BT
Satellite: UO-11 Catalog number: 14781 Epoch time: 13339.10871268 Element set: 354 Inclination: 097.8813 deg RA of node: 037.7838 deg Eccentricity: 0.0010223 Arg of perigee: 095.0443 deg Mean anomaly: 265.1936 deg Mean motion: 14.81150231 rev/day Decay rate: 6.96e-06 rev/day^2 Epoch rev: 59923 Checksum: 309
Satellite: AO-16 Catalog number: 20439 Epoch time: 13338.62984147 Element set: 898 Inclination: 098.4895 deg RA of node: 274.8315 deg Eccentricity: 0.0011101 Arg of perigee: 021.1180 deg Mean anomaly: 103.7333 deg Mean motion: 14.32242151 rev/day Decay rate: 1.89e-06 rev/day^2 Epoch rev: 24663 Checksum: 293
Satellite: LO-19 Catalog number: 20442 Epoch time: 13338.68910244 Element set: 837 Inclination: 098.4596 deg RA of node: 276.1393 deg Eccentricity: 0.0011806 Arg of perigee: 010.3596 deg Mean anomaly: 349.7829 deg Mean motion: 14.32449718 rev/day Decay rate: 1.86e-06 rev/day^2 Epoch rev: 24683 Checksum: 337
Satellite: AO-27 Catalog number: 22825 Epoch time: 13338.83999021 Element set: 541 Inclination: 098.6397 deg RA of node: 281.2177 deg Eccentricity: 0.0009237 Arg of perigee: 142.6888 deg Mean anomaly: 275.8732 deg Mean motion: 14.29621625 rev/day Decay rate: 1.52e-06 rev/day^2 Epoch rev: 5301 Checksum: 324
Satellite: IO-26 Catalog number: 22826 Epoch time: 13339.45063031 Element set: 298 Inclination: 098.6338 deg RA of node: 282.0765 deg Eccentricity: 0.0009893 Arg of perigee: 134.9096 deg Mean anomaly: 002.8370 deg Mean motion: 14.29912405 rev/day Decay rate: 1.65e-06 rev/day^2 Epoch rev: 5323 Checksum: 308
Satellite: GO-32 Catalog number: 25397 Epoch time: 13339.15164593 Element set: 222 Inclination: 098.4413 deg RA of node: 299.6854 deg Eccentricity: 0.0002160 Arg of perigee: 130.6347 deg Mean anomaly: 294.4526 deg Mean motion: 14.23380440 rev/day Decay rate: 1.03e-06 rev/day^2 Epoch rev: 80026 Checksum: 286
Satellite: NO-44 Catalog number: 26931 Epoch time: 13338.54773115 Element set: 481 Inclination: 067.0502 deg RA of node: 180.3223 deg Eccentricity: 0.0006370 Arg of perigee: 262.8735 deg Mean anomaly: 097.1642 deg Mean motion: 14.29996949 rev/day Decay rate: 8.3e-07 rev/day^2 Epoch rev: 63577 Checksum: 322
Satellite: SO-50 Catalog number: 27607 Epoch time: 13339.46931853 Element set: 239 Inclination: 064.5574 deg RA of node: 102.6074 deg Eccentricity: 0.0032005 Arg of perigee: 091.1467 deg Mean anomaly: 339.4971 deg Mean motion: 14.73234797 rev/day Decay rate: 8.44e-06 rev/day^2 Epoch rev: 58894 Checksum: 331
Satellite: CO-55 Catalog number: 27844 Epoch time: 13338.57999074 Element set: 800 Inclination: 098.7008 deg RA of node: 345.1761 deg Eccentricity: 0.0010764 Arg of perigee: 116.2685 deg Mean anomaly: 002.1320 deg Mean motion: 14.21325835 rev/day Decay rate: 2.90e-06 rev/day^2 Epoch rev: 54093 Checksum: 301
Satellite: CO-57 Catalog number: 27848 Epoch time: 13338.54425234 Element set: 742 Inclination: 098.7095 deg RA of node: 344.7451 deg Eccentricity: 0.0010639 Arg of perigee: 121.7498 deg Mean anomaly: 000.0433 deg Mean motion: 14.21037756 rev/day Decay rate: 2.31e-06 rev/day^2 Epoch rev: 54085 Checksum: 302
Satellite: AO-51 Catalog number: 28375 Epoch time: 13338.43063208 Element set: 716 Inclination: 098.2264 deg RA of node: 287.2637 deg Eccentricity: 0.0082657 Arg of perigee: 220.4235 deg Mean anomaly: 254.1917 deg Mean motion: 14.41220408 rev/day Decay rate: 2.27e-06 rev/day^2 Epoch rev: 49585 Checksum: 308
Satellite: CP3 Catalog number: 31129 Epoch time: 13339.44308005 Element set: 616 Inclination: 097.9140 deg RA of node: 322.5788 deg Eccentricity: 0.0098235 Arg of perigee: 254.0430 deg Mean anomaly: 260.2017 deg Mean motion: 14.54037310 rev/day Decay rate: 9.72e-06 rev/day^2 Epoch rev: 35187 Checksum: 282
Satellite: CO-65 Catalog number: 32785 Epoch time: 13339.15447131 Element set: 806 Inclination: 097.7291 deg RA of node: 031.6404 deg Eccentricity: 0.0015583 Arg of perigee: 106.8269 deg Mean anomaly: 310.4573 deg Mean motion: 14.84389512 rev/day Decay rate: 1.519e-05 rev/day^2 Epoch rev: 30323 Checksum: 306
Satellite: PRISM Catalog number: 33493 Epoch time: 13339.66143943 Element set: 430 Inclination: 098.2339 deg RA of node: 142.5837 deg Eccentricity: 0.0018022 Arg of perigee: 358.3318 deg Mean anomaly: 001.7846 deg Mean motion: 14.87160873 rev/day Decay rate: 3.847e-05 rev/day^2 Epoch rev: 26339 Checksum: 316
Satellite: SOHLA-1 Catalog number: 33496 Epoch time: 13338.88122022 Element set: 215 Inclination: 098.1509 deg RA of node: 094.6466 deg Eccentricity: 0.0007641 Arg of perigee: 134.8634 deg Mean anomaly: 338.1043 deg Mean motion: 14.70474641 rev/day Decay rate: 5.66e-06 rev/day^2 Epoch rev: 26095 Checksum: 300
Satellite: TISAT-1 Catalog number: 36799 Epoch time: 13339.69006962 Element set: 693 Inclination: 098.0294 deg RA of node: 065.4078 deg Eccentricity: 0.0013286 Arg of perigee: 228.3432 deg Mean anomaly: 131.6668 deg Mean motion: 14.84114173 rev/day Decay rate: 2.834e-05 rev/day^2 Epoch rev: 18400 Checksum: 320
Satellite: STUDSAT Catalog number: 36801 Epoch time: 13339.22435822 Element set: 726 Inclination: 098.0410 deg RA of node: 069.8797 deg Eccentricity: 0.0010819 Arg of perigee: 205.1553 deg Mean anomaly: 232.6637 deg Mean motion: 14.90983565 rev/day Decay rate: 1.0741e-04 rev/day^2 Epoch rev: 18417 Checksum: 308
Satellite: ALMASAT-1 Catalog number: 38078 Epoch time: 13339.46796931 Element set: 853 Inclination: 069.4769 deg RA of node: 160.9168 deg Eccentricity: 0.0659803 Arg of perigee: 286.1981 deg Mean anomaly: 066.7706 deg Mean motion: 14.34472359 rev/day Decay rate: 2.2583e-04 rev/day^2 Epoch rev: 9371 Checksum: 367
Satellite: XATCOBEO Catalog number: 38082 Epoch time: 13339.67533902 Element set: 736 Inclination: 069.4716 deg RA of node: 111.1090 deg Eccentricity: 0.0470357 Arg of perigee: 259.0704 deg Mean anomaly: 095.7210 deg Mean motion: 14.83325767 rev/day Decay rate: 1.05973e-03 rev/day^2 Epoch rev: 9509 Checksum: 314
Satellite: CUBEBUG-1 Catalog number: 39153 Epoch time: 13339.64496007 Element set: 643 Inclination: 098.0629 deg RA of node: 055.2975 deg Eccentricity: 0.0016940 Arg of perigee: 252.1466 deg Mean anomaly: 107.7912 deg Mean motion: 14.76856268 rev/day Decay rate: 1.438e-05 rev/day^2 Epoch rev: 3298 Checksum: 330
Satellite: ESTCUBE-1 Catalog number: 39161 Epoch time: 13339.45824770 Element set: 613 Inclination: 098.1173 deg RA of node: 056.7257 deg Eccentricity: 0.0008865 Arg of perigee: 293.6626 deg Mean anomaly: 066.3655 deg Mean motion: 14.69318241 rev/day Decay rate: 1.159e-05 rev/day^2 Epoch rev: 3114 Checksum: 313
/EX SB KEPS @ AMSAT $ORB13339.W Orbital Elements 13339.WEATHER
HR AMSAT ORBITAL ELEMENTS FOR WEATHER SATELLITES FROM WA5QGD FORT WORTH,TX December 5, 2013 BID: ORB13339.W TO ALL RADIO AMATEURS BT
Satellite: NOAA-10 Catalog number: 16969 Epoch time: 13339.56435037 Element set: 589 Inclination: 098.5312 deg RA of node: 003.5404 deg Eccentricity: 0.0013382 Arg of perigee: 103.8840 deg Mean anomaly: 058.3765 deg Mean motion: 14.27689484 rev/day Decay rate: 8.9e-07 rev/day^2 Epoch rev: 41639 Checksum: 329
Satellite: NOAA-11 Catalog number: 19531 Epoch time: 13339.34456418 Element set: 613 Inclination: 098.6995 deg RA of node: 058.2483 deg Eccentricity: 0.0012213 Arg of perigee: 130.5709 deg Mean anomaly: 229.6529 deg Mean motion: 14.15042145 rev/day Decay rate: 5.8e-07 rev/day^2 Epoch rev: 30032 Checksum: 289
